Theta_e
345 344 337 340 334 335 336 337 337 335 334 333 332 333 334 335 335 338 338 338 335 332 333 337 334 334 334 339 339 338 333 333 335 337 338 338 338 338 337 334 334 336 338
340 343 339 336 335 336 337 337 336 335 333 331 335 332 331 332 334 345 333 331 330 330 331 332 331 331 333 336 334 333 334 334 333 332 336 338 338 338 338 340 338 336 337
337 342 341 337 336 336 337 337 336 333 340 337 327 327 337 337 338 341 332 331 330 329 329 331 332 332 332 333 334 339 341 334 340 333 330 332 333 337 340 343 338 335 336
337 339 338 336 337 337 338 335 337 340 338 329 328 328 343 336 339 332 326 326 326 326 327 330 332 330 332 336 341 341 342 338 342 340 339 335 329 330 336 338 335 336 335
334 332 338 331 334 338 339 337 336 341 324 332 325 324 324 325 325 325 324 328 330 330 330 330 329 328 338 340 340 342 341 340 340 341 341 337 327 326 326 327 328 330 328
337 341 338 334 339 338 335 333 327 323 327 339 324 329 338 328 324 325 333 338 333 331 334 335 337 334 332 337 342 342 341 343 344 340 341 340 327 326 326 327 326 329 333
342 341 335 340 339 338 333 324 330 327 338 338 333 326 331 333 334 335 337 340 340 338 333 337 339 340 338 341 343 343 345 345 345 339 340 340 336 326 326 326 326 325 327
343 341 338 339 336 338 329 326 336 334 333 329 329 327 328 334 333 331 334 334 336 335 336 334 337 339 340 341 341 342 343 344 343 343 341 341 340 331 327 326 325 326 325
342 339 339 337 337 336 327 325 331 330 326 329 332 332 332 331 330 331 331 330 328 327 330 334 335 337 338 339 340 342 343 343 340 341 343 342 341 340 331 328 325 325 325
341 339 338 337 335 331 331 324 324 326 329 334 341 340 341 335 331 327 327 330 332 330 329 328 330 333 335 336 338 343 345 345 345 344 344 342 343 344 339 335 331 326 324
339 337 338 334 333 333 328 325 325 328 332 341 345 346 346 345 346 346 345 346 346 347 345 340 340 339 337 339 344 345 344 342 336 343 345 339 344 344 343 340 339 337 335
338 338 337 330 327 326 326 331 339 344 343 344 346 345 342 346 346 343 342 342 346 346 345 342 342 340 338 339 341 344 342 342 343 342 340 337 340 343 343 342 340 341 341
340 339 332 327 335 333 340 341 341 340 340 341 343 346 343 345 345 343 344 340 344 343 342 344 344 342 341 340 343 342 341 342 341 341 337 335 342 344 344 342 340 340 340
340 338 329 335 344 345 345 345 342 341 343 344 342 342 342 343 344 344 345 344 345 344 342 343 344 343 342 345 343 342 344 342 340 342 341 339 341 344 346 345 341 340 339
341 338 335 336 341 344 341 342 341 344 346 344 345 344 344 345 345 343 344 345 340 341 344 345 344 345 344 342 343 344 343 341 343 343 343 343 344 344 342 341 331 336 334
340 342 343 339 344 344 344 341 345 344 345 346 345 344 345 344 342 343 343 344 346 345 343 346 344 344 346 346 345 343 341 341 340 343 341 343 344 345 345 343 338 333 333
337 342 343 343 344 341 342 345 345 346 346 345 345 343 343 344 342 341 343 347 344 346 343 343 344 346 347 345 344 343 340 339 339 339 337 338 340 343 344 343 342 341 338
334 335 340 343 342 341 343 345 345 344 343 343 343 343 342 343 342 342 343 345 347 343 347 346 344 346 345 343 339 339 339 339 339 340 340 339 338 340 338 340 342 343 341
333 332 338 340 339 340 340 341 344 342 341 343 341 343 342 343 343 343 344 346 346 340 341 342 339 343 343 334 334 339 341 340 341 342 341 340 339 339 339 340 341 340 341
338 333 334 335 337 341 340 336 339 339 339 341 341 342 342 342 343 343 347 345 344 343 342 334 336 333 330 336 340 341 341 341 342 341 340 342 341 341 340 340 340 341 341
339 336 337 338 338 342 340 334 335 334 335 337 340 342 342 344 344 343 348 348 346 343 345 340 339 341 337 336 336 333 332 333 336 337 339 337 337 339 339 339 339 337 339
341 339 338 339 341 342 337 334 333 332 335 336 339 340 342 344 342 343 345 349 347 342 340 342 342 341 341 341 341 341 341 339 339 339 338 339 338 338 336 338 340 340 340
343 341 341 340 343 342 341 341 339 334 333 334 335 338 342 342 347 347 347 349 346 339 342 343 344 344 343 342 342 343 343 341 342 342 341 340 335 333 332 333 334 334 330
345 342 341 341 341 342 342 342 340 337 334 334 335 336 338 339 346 344 346 348 350 349 347 343 340 342 345 344 343 344 345 344 342 341 336 332 329 327 329 329 327 327 330
345 344 343 343 341 342 341 342 342 341 338 337 336 336 337 343 345 344 345 350 350 350 347 345 346 347 347 347 346 345 343 339 336 335 333 331 325 325 324 324 324 329 328
345 344 341 341 342 343 342 343 343 342 339 338 338 338 339 342 343 345 349 350 348 347 347 345 347 345 346 345 344 341 338 336 335 333 331 330 328 317 321 326 324 321 322
Wind_Speed
18 17 18 20 21 20 19 18 18 17 17 17 16 16 14 13 13 12 12 11 11 11 10 10 9 8 7 9 10 8 7 7 8 9 8 8 3 2 3 3 2 2 3
18 17 17 18 19 19 18 17 17 16 15 15 15 15 15 13 13 13 12 12 11 11 10 10 10 9 8 8 8 7 5 7 8 8 7 6 5 4 4 4 2 3 2
19 18 17 16 16 16 16 16 15 16 16 16 16 15 15 13 13 13 12 12 11 11 10 9 8 7 7 7 7 6 5 8 7 6 5 4 2 3 5 6 6 5 5
19 18 16 16 15 15 15 15 15 16 15 14 15 15 14 14 13 12 12 13 12 13 12 11 9 9 8 9 8 5 6 6 2 2 4 2 2 3 6 7 6 6 7
19 17 16 14 13 13 15 15 15 14 13 15 14 14 13 12 11 12 13 14 12 12 11 11 10 9 10 8 5 4 3 2 1 1 2 3 3 2 5 6 7 7 7
20 17 15 13 13 14 13 12 12 12 14 14 14 14 14 14 13 13 12 10 10 10 10 11 10 9 8 7 4 1 1 1 3 4 3 4 4 3 4 4 5 6 6
20 17 15 13 14 14 13 13 14 15 15 14 14 13 14 14 12 11 9 8 8 7 7 7 7 8 8 6 4 2 3 5 7 6 3 5 6 4 4 5 5 5 6
20 16 14 13 13 13 12 13 13 14 14 14 14 13 12 12 11 9 8 6 5 4 4 3 4 3 4 3 3 3 6 9 6 6 6 6 9 8 6 6 6 5 6
17 16 15 14 13 12 12 13 13 14 14 14 14 14 13 12 10 8 7 6 4 2 0 0 2 3 3 4 6 7 8 7 7 5 8 9 10 10 9 8 7 6 6
17 15 15 14 13 12 13 14 14 15 14 14 15 15 14 13 9 8 7 7 5 3 2 2 3 4 7 7 5 7 10 7 8 5 7 10 11 12 11 11 9 8 7
18 16 14 14 13 13 13 15 15 15 12 11 11 9 9 10 9 9 7 5 4 4 5 4 4 8 6 9 5 7 6 3 5 8 12 8 11 13 16 13 11 9 8
20 18 16 15 15 16 16 16 15 13 10 8 7 7 7 7 6 7 4 3 4 5 4 2 3 7 14 11 7 8 9 5 6 9 16 18 13 12 15 15 12 11 10
19 19 16 18 18 16 15 12 9 8 10 10 8 8 7 8 8 6 6 3 6 8 7 4 2 4 4 6 7 7 5 7 7 7 12 8 8 9 14 15 13 13 12
20 19 20 20 17 13 10 8 9 10 11 11 10 8 9 11 10 12 9 7 10 9 11 7 5 5 5 6 8 12 7 9 8 6 4 2 7 10 11 11 11 10 12
21 21 19 17 12 11 11 11 11 12 11 11 12 12 14 16 11 11 7 9 12 10 5 6 3 4 5 5 6 8 11 9 9 7 7 8 8 8 6 8 8 7 8
21 20 17 14 12 10 7 10 9 10 9 8 8 8 9 10 13 12 9 5 11 10 7 5 3 4 8 8 6 10 8 13 13 9 6 7 8 8 10 10 10 10 10
22 19 16 12 10 8 6 11 10 6 7 7 4 4 6 7 13 15 12 10 7 9 9 7 8 7 9 11 10 7 8 11 11 11 11 9 8 10 12 15 17 18 17
21 21 17 12 12 9 8 10 11 8 6 5 2 3 7 7 11 14 12 11 10 10 8 6 6 8 8 10 7 6 8 8 10 16 14 12 13 15 16 19 20 22 25
25 21 20 17 12 11 12 12 13 11 6 4 2 3 6 8 10 15 14 12 11 10 9 6 8 6 7 8 9 8 8 8 9 14 14 17 17 20 23 22 21 24 28
28 24 22 21 16 12 12 13 15 12 8 7 5 5 7 10 10 14 15 11 12 11 12 9 9 8 9 9 10 12 13 15 15 14 13 12 17 20 20 22 27 30 25
28 28 27 23 20 15 16 17 16 13 10 9 9 7 7 6 7 11 12 10 9 9 10 10 11 12 11 12 15 17 17 19 18 19 14 20 20 23 22 25 25 24 26
26 30 31 27 23 18 16 15 14 12 11 12 13 8 6 8 11 12 12 10 11 11 12 12 13 14 15 14 16 20 17 26 16 22 22 23 19 21 24 21 22 24 27
28 29 31 29 25 22 20 17 18 18 18 16 13 10 7 9 10 10 9 11 11 10 13 16 16 15 16 17 17 15 9 8 30 26 27 19 21 22 24 22 20 20 20
29 29 29 29 27 25 23 21 21 21 21 17 14 14 12 11 9 9 10 12 14 17 17 15 15 18 16 17 16 15 14 16 15 23 26 25 25 24 22 23 25 21 21
30 31 31 29 28 27 26 25 24 23 22 20 19 18 14 13 15 13 12 12 14 16 17 18 17 15 16 16 16 18 19 17 12 16 23 31 33 30 27 28 23 17 20
31 31 31 31 30 29 29 28 27 24 23 23 20 18 14 15 15 13 14 14 12 17 18 18 16 17 16 15 17 16 15 13 15 17 21 24 27 35 30 26 26 26 25
Wind_Direction
129 117 120 118 117 116 114 110 108 107 107 109 112 114 115 115 114 115 115 109 104 105 108 110 109 110 113 118 110 120 112 102 102 99 127 139 151 168 137 153 148 153 147
132 120 122 123 119 114 112 111 109 109 107 107 111 110 111 115 118 112 112 109 109 111 111 110 110 108 109 116 113 114 117 100 83 99 106 130 153 188 210 225 247 241 242
138 125 124 122 119 115 113 108 109 106 100 101 104 110 110 108 112 112 112 113 111 109 114 118 124 123 125 123 117 104 103 121 87 85 104 130 179 226 227 224 281 260 254
143 132 127 124 119 115 110 107 106 108 105 106 104 111 112 107 106 110 113 110 107 106 109 114 121 120 126 131 127 106 109 134 126 145 92 89 195 227 227 243 250 241 259
144 140 130 123 120 115 112 109 105 107 103 105 103 108 109 110 110 109 112 112 111 108 110 114 119 131 141 144 134 117 88 124 283 325 264 19 6 267 252 247 254 258 258
141 138 135 127 120 113 112 109 107 107 108 101 99 106 100 100 105 110 110 103 110 111 118 122 126 136 155 167 150 121 70 55 326 306 336 352 357 330 294 277 254 245 246
142 140 134 129 119 118 110 109 108 109 105 100 97 100 100 100 94 97 97 91 96 99 117 124 131 140 160 179 190 215 274 295 298 294 301 320 338 320 302 283 276 267 251
144 140 135 124 122 121 113 117 110 110 110 107 104 99 101 103 98 92 90 83 74 77 99 141 162 175 173 208 249 293 301 310 302 287 301 305 312 310 297 284 276 265 258
144 140 133 127 126 120 119 122 117 115 115 114 108 102 96 95 93 93 92 86 69 50 51 222 228 254 283 297 319 320 310 321 330 312 293 295 298 301 293 282 279 281 276
141 138 131 130 127 124 124 125 127 124 123 117 112 108 104 96 93 91 87 82 75 46 16 332 299 295 298 305 329 314 313 290 285 290 277 290 278 289 280 278 268 268 274
143 138 139 133 133 133 131 130 131 129 122 119 109 104 91 85 78 66 54 48 33 16 15 21 2 356 310 310 306 312 318 322 341 280 294 280 288 274 272 269 268 263 267
149 147 144 141 138 138 129 126 125 118 105 119 108 96 82 71 58 60 47 3 359 327 345 335 349 345 244 283 310 298 285 322 320 334 313 289 264 250 263 261 263 264 265
151 149 147 147 140 136 125 122 120 123 114 128 83 71 70 57 45 21 15 14 328 340 347 345 33 3 5 316 331 325 320 329 315 317 11 325 246 262 263 262 266 269 271
155 154 153 152 142 143 133 124 121 111 113 101 77 67 43 26 16 9 4 351 332 332 350 331 323 354 341 338 329 340 325 322 333 317 306 20 257 278 285 282 271 262 267
161 158 159 164 147 137 120 134 135 121 109 102 74 60 48 30 19 15 3 351 338 323 326 343 18 41 6 343 345 327 333 332 328 327 319 311 308 316 286 288 292 281 274
170 169 168 164 149 149 148 163 149 145 129 107 77 56 40 29 22 9 4 355 351 352 315 303 293 329 339 327 318 328 336 328 319 328 329 310 289 291 298 288 290 285 281
180 180 182 175 185 172 156 172 165 154 136 126 91 48 14 3 10 5 360 359 349 358 355 317 302 317 312 319 318 326 326 323 321 336 330 310 285 288 295 293 290 284 282
192 194 189 185 183 176 178 184 181 186 176 163 145 14 357 360 1 3 347 345 350 357 4 1 335 299 297 299 282 286 316 314 314 318 297 300 292 295 289 287 282 281 279
203 200 199 201 198 195 197 202 208 211 202 215 229 291 326 338 342 346 341 340 354 7 1 347 347 318 300 292 273 285 295 304 293 319 307 287 287 285 290 290 285 289 281
211 209 209 211 207 204 211 216 217 223 232 228 236 257 295 321 322 341 348 340 348 349 353 352 359 350 325 308 296 299 303 301 298 307 309 298 301 305 300 297 298 291 285
212 211 210 209 209 215 212 218 224 233 240 225 226 247 292 328 338 330 337 348 350 339 349 350 337 336 326 324 317 303 296 299 303 307 304 311 310 307 299 301 299 304 295
207 211 208 213 208 209 212 223 232 237 231 225 233 253 282 313 322 315 313 330 339 342 329 322 327 320 318 319 321 322 326 316 321 311 318 319 317 309 311 311 308 306 301
210 211 210 205 207 211 218 226 232 237 237 238 247 261 269 290 306 306 307 324 339 341 330 320 315 320 324 325 319 321 315 302 316 319 318 323 320 322 323 323 320 322 318
212 212 211 211 213 217 224 229 236 243 245 252 260 266 268 269 276 288 309 318 321 323 327 325 312 318 317 316 314 315 309 311 317 315 317 326 323 324 322 321 328 328 324
216 216 217 217 218 220 226 230 238 248 253 258 260 266 268 250 265 288 292 304 313 315 320 321 319 316 310 307 307 312 314 318 324 325 318 322 318 323 323 324 328 316 322
217 217 215 216 219 223 228 234 240 249 254 259 260 261 262 258 268 283 291 301 307 312 316 314 310 310 314 309 310 317 321 328 319 321 316 317 313 314 322 324 323 320 309